Hourly Data Report for July 26, 2021

CLYDE RIVER A
NUNAVUT
Current Station Operator: NAVCAN

70°29'09.000" N
68°31'01.000" W
26.50 m
2400804
71090
YCY

Download Data

Hourly Data (July 2021)
Hourly Data Report for July 26, 2021
TIME
LST
Temp Definition
°C
Dew Point Definition
°C
Rel Hum Definition
%
Precip. Amount Definition
mm

Wind Dir Definition
10's deg

Wind Spd Definition
km/h
Visibility Definition
km
Stn Press Definition
kPa
Hmdx Definition


Wind Chill Definition


Weather Definition


00:00 1.8 1.4 97 0.0 33 5 16.1 99.26     LegendNANA
01:00 1.7 1.1 96 0.0 34 8 16.1 99.28     LegendNANA
02:00 1.2 0.9 98 0.0 28 8 16.1 99.33     LegendNANA
03:00 1.6 1.3 98 0.0 1 9 16.1 99.28     LegendNANA
04:00 1.6 1.0 96 0.0   0 16.1 99.40     LegendNANA
05:00 2.0 1.3 95 0.0 25 5 16.1 99.39     LegendNANA
06:00 2.1 1.8 98 0.0 15 13 14.5 99.45     Rain
07:00 2.0 1.7 98 0.0 14 11 16.1 99.47     Rain
08:00 2.2 1.8 97 0.0   0 16.1 99.45     Rain
09:00 2.8 2.2 96 0.0 13 5 16.1 99.43     Rain
10:00 3.3 2.6 95 0.0 11 11 16.1 99.42     LegendNANA
11:00 3.0 2.3 95 0.0 12 15 16.1 99.42     LegendNANA
12:00 3.1 2.4 95 0.0 14 9 16.1 99.42     LegendNANA
13:00 3.6 2.7 94 0.0 12 17 16.1 99.41     LegendNANA
14:00 3.7 2.8 94 0.0 13 17 16.1 99.42     LegendNANA
15:00 3.2 2.6 96 0.0 12 17 16.1 99.43     LegendNANA
16:00 3.7 2.8 94 0.0 13 22 16.1 99.41     LegendNANA
17:00 3.4 2.8 96 0.0 13 18 16.1 99.43     LegendNANA
18:00 3.4 2.9 97 0.0 12 13 16.1 99.44     LegendNANA
19:00 4.1 3.7 97 0.0 13 5 16.1 99.46     LegendNANA
20:00 3.6 3.2 97 0.0 13 17 16.1 99.48     LegendNANA
21:00 2.5 2.1 97 0.0 14 11 16.1 99.52     LegendNANA
22:00 1.9 1.8 99 0.0 13 5 16.1 99.54     LegendNANA
23:00 1.0 0.9 99 0.0 11 13 0.2 99.55     Fog

Notes on Data Quality.

Legend

  • E = Estimated
  • M = Missing
  • NA = Not Available*
  • [empty] = Indicates an unobserved value
Date modified: